"TOA5","AWS1","CR1000","7964","CR1000.Std.14","CPU:AWS1_114.CR1","64363","TBL110"
"TIMESTAMP","RECORD","Wind_spd_WVc(1)","Wind_spd_WVc(2)","Air_Temp_Avg","Humidity_Avg","SW_upper_Wm2_Avg","Rain_Tot","Press_Avg","Issui_Tot","Depth_cm","SR50A_Raw","Quality","Ground_Temp_Avg(1)","Ground_Temp_Avg(2)","SW_lower_Wm2_Avg","Albedo_Avg","SWC_per(1)","SWC_per(2)","Period(1)","Period(2)"
"TS","RN","","","","","","","","","","","","","","","","","","",""
"","","WVc","WVc","Avg","Avg","Avg","Tot","Avg","Tot","Smp","Smp","Smp","Avg","Avg","Avg","Avg","Smp","Smp","Smp","Smp"
"2017-10-22 00:00:00",311101,0.066,306,11.88,99.8,0,0,865.3709,0,-30.87,3.415,237,12.98,13.1,0.8412781,0,51.05,58.38,33.56,35.31
"2017-10-22 00:10:00",311102,0,0,11.61,100,0,0.5,865.3685,0,-0.261,3.118,227,12.98,13.1,0.1250549,0,51.05,58.32,33.56,35.29
"2017-10-22 00:20:00",311103,0,0,11.42,100,0,0,865.3746,0,-32.08,3.43,215,13.01,13.1,0.03410587,0,50.99,58.38,33.54,35.31
"2017-10-22 00:30:00",311104,0,0,11.29,100,0,0,865.2432,0,-31.75,3.427,218,13,13.1,0.3372692,0,50.99,58.32,33.54,35.29
"2017-10-22 00:40:00",311105,0,0,11.28,100,0,0,865.1713,0,-30.95,3.42,295,12.94,13.1,0.3562168,0,50.99,58.32,33.54,35.29
"2017-10-22 00:50:00",311106,0,0,11.21,100,0,0,865.1807,0,4.907,3.069,382,12.93,13.1,0.3334796,0,51.05,58.32,33.56,35.29
"2017-10-22 01:00:00",311107,0,0,11.07,100,0,0,865.0933,0,2.099,3.097,235,12.93,13.1,0.1970561,0,50.99,58.32,33.54,35.29
"2017-10-22 01:10:00",311108,0.137,205.6,11.02,100,0,0,865.0569,0,11.53,3.005,385,12.91,13.1,0.4433763,0,50.99,58.32,33.54,35.29
"2017-10-22 01:20:00",311109,0,0,11.06,100,0,0,864.9968,0,11.92,3,306,12.89,13.1,0.4547449,0,51.05,58.32,33.56,35.29
"2017-10-22 01:30:00",311110,0,0,11.03,100,0,0.5,864.8791,0,11.98,3.001,293,12.89,13.1,0.2917947,0,50.99,58.26,33.54,35.28
"2017-10-22 01:40:00",311111,0.07,180.3,10.9,100,0,0,864.8939,0,12.09,3,298,12.89,13.1,0.2235829,0,51.05,58.32,33.56,35.29
"2017-10-22 01:50:00",311112,0,0,10.9,100,0,0.5,864.8854,0,11.78,3.003,334,12.89,13.1,0.3524273,0,50.99,58.26,33.54,35.28
"2017-10-22 02:00:00",311113,0,0,10.9,100,0,0,864.7148,0,-31.05,3.422,233,12.89,13.1,0.3979018,0,50.99,58.26,33.54,35.28
"2017-10-22 02:10:00",311114,0,0,10.92,100,0,0,864.4958,0,-1.067,3.129,220,12.89,13.1,0.2349515,0,50.99,58.32,33.54,35.29
"2017-10-22 02:20:00",311115,0,0,10.96,100,0,0.5,864.3041,0,-0.475,3.122,212,12.89,13.1,0.4850613,0,50.99,58.32,33.54,35.29
"2017-10-22 02:30:00",311116,0,0,10.91,100,0,0,864.1461,0,0.87,3.11,216,12.89,13.1,0.1288444,0,51.05,58.26,33.56,35.28
"2017-10-22 02:40:00",311117,0,0,10.9,100,0,0.5,864.1208,0,-2.214,3.14,205,12.9,13.1,0.3562168,0,50.99,58.26,33.54,35.28
"2017-10-22 02:50:00",311118,0,0,11.14,100,0,0.5,864.1208,0,-0.446,3.121,213,12.92,13.1,0.6972755,0,51.05,58.26,33.56,35.28
"2017-10-22 03:00:00",311119,0,0,10.93,100,0,0,864.1208,0,-0.354,3.122,224,12.92,13.1,0.06821174,0,51.1,58.26,33.57,35.28
"2017-10-22 03:10:00",311120,0,0,10.97,100,0,0.5,864.1208,0,0.671,3.111,219,12.9,13.1,0.4395868,0,51.1,58.26,33.57,35.28
"2017-10-22 03:20:00",311121,0,0,11.02,100,0,0,864.0092,0,-1.883,3.137,198,12.9,13.1,0.3107423,0,51.21,58.26,33.6,35.28
"2017-10-22 03:30:00",311122,0,0,10.87,100,0,0.5,863.7038,0,0.486,3.114,252,12.85,13.1,0,0,51.33,58.32,33.62,35.29
"2017-10-22 03:40:00",311123,0,0,10.99,100,0,0,863.6259,0,0.443,3.113,284,12.84,13.1,0.4812717,0,51.38,58.26,33.64,35.28
"2017-10-22 03:50:00",311124,0,0,10.91,100,0,0,863.6343,0,-1.781,3.136,202,12.8,13.1,0.4054809,0,51.49,58.32,33.66,35.29
"2017-10-22 04:00:00",311125,0,0,10.93,100,0,0.5,863.6069,0,-0.023,3.119,241,12.8,13.1,0.3562168,0,51.6,58.32,33.69,35.29
"2017-10-22 04:10:00",311126,0,0,10.79,100,0,0,863.6153,0,1.2,3.107,221,12.8,13.1,0.1667398,0,51.66,58.38,33.7,35.31
"2017-10-22 04:20:00",311127,0,0,10.87,100,0,0.5,863.7418,0,0.564,3.113,261,12.8,13.1,0.4547449,0,51.77,58.38,33.73,35.31
"2017-10-22 04:30:00",311128,0,0,10.84,100,0,0,863.8682,0,-2.699,3.145,187,12.8,13.1,0.4547449,0,51.82,58.44,33.75,35.32
"2017-10-22 04:40:00",311129,0,0,10.86,100,0,0.5,863.8829,0,-3.005,3.148,200,12.8,13.1,0.3145319,0,51.94,58.5,33.77,35.33
"2017-10-22 04:50:00",311130,0,0,10.86,100,0,0.5,863.7796,0,2.297,3.096,273,12.82,13.1,0.4509554,0,51.99,58.56,33.79,35.35
"2017-10-22 05:00:00",311131,0,0,10.88,100,0,0,863.6301,0,1.38,3.105,276,12.84,13.1,0.4547449,0,52.1,58.61,33.81,35.36
"2017-10-22 05:10:00",311132,0,0,10.92,100,0,0.5,863.6111,0,-2.826,3.146,192,12.84,13.1,0.4547449,0,52.16,58.67,33.83,35.37
"2017-10-22 05:20:00",311133,0.063,344.7,10.87,100,0,1,863.4026,0,1.74,3.101,230,12.79,13.1,0.4357972,0,52.32,58.73,33.87,35.39
"2017-10-22 05:30:00",311134,0.041,181.8,10.82,100,0,0.5,863.3626,0,0.049,3.119,243,12.76,13.1,0.0833699,0,52.44,58.79,33.89,35.4
"2017-10-22 05:40:00",311135,0.103,11.43,10.71,100,0,0,863.1246,0,2.268,3.097,288,12.76,13.1,0.08715944,0,52.66,58.85,33.95,35.41
"2017-10-22 05:50:00",311136,0.403,195.8,10.87,100,0,0.5,862.8572,0,0.666,3.112,248,12.74,13.1,0.2046352,0,52.83,59.03,33.99,35.45
"2017-10-22 06:00:00",311137,0.234,221.8,10.8,100,0,0.5,862.7919,0,0.511,3.114,242,12.74,13.1,0,0,52.94,59.08,34.02,35.47
"2017-10-22 06:10:00",311138,0.346,178.8,10.69,100,0,0.5,862.8108,0,0.457,3.115,203,12.77,13.09,0,0,53.05,59.26,34.04,35.51
"2017-10-22 06:20:00",311139,0.532,189.8,10.68,100,0.2869107,1,862.7982,0,-1.737,3.137,212,12.74,13.08,0.04547449,0.096,53.16,59.38,34.07,35.54
"2017-10-22 06:30:00",311140,0.785,186.1,10.68,100,0.9039652,0.5,862.6823,0,-32.77,3.441,196,12.73,13.06,0.02652679,0.041,53.33,59.56,34.11,35.58
"2017-10-22 06:40:00",311141,0.188,217.5,10.69,100,1.729325,0,862.6423,0,4.433,3.076,340,12.74,13.08,0.3941123,0.234,53.45,59.73,34.14,35.62
"2017-10-22 06:50:00",311142,0.154,279,10.68,100,3.277856,1,862.3495,0,3.311,3.087,330,12.7,13.07,0.4547449,0.141,53.56,60.03,34.17,35.69
"2017-10-22 07:00:00",311143,0.036,309.9,10.7,100,4.511965,0.5,862.5453,0,3.743,3.083,309,12.67,13.06,0.4812717,0.107,53.61,60.33,34.18,35.75
"2017-10-22 07:10:00",311144,0.057,357.2,10.64,100,5.066135,1,862.3137,0,0.2,3.118,209,12.67,13.05,0.4547449,0.09,53.78,60.74,34.22,35.85
"2017-10-22 07:20:00",311145,0.026,23.01,10.62,100,7.102022,0.5,862.0567,0,0.506,3.115,214,12.63,13.03,0.8564363,0.122,54.29,61.1,34.34,35.93
"2017-10-22 07:30:00",311146,0,0,10.58,100,10.60783,0.5,862.2737,0,1.956,3.101,263,12.63,13.03,1.106546,0.104,54.41,61.4,34.37,36
"2017-10-22 07:40:00",311147,0.118,148.5,10.55,100,10.21874,0.5,862.5053,0,-1.281,3.133,197,12.63,13.05,1.034545,0.101,54.46,61.58,34.38,36.04
"2017-10-22 07:50:00",311148,0.069,164.6,10.6,100,12.65944,1,862.4001,0,-0.897,3.129,194,12.65,13.06,1.265707,0.1,54.46,61.7,34.38,36.06
"2017-10-22 08:00:00",311149,0.509,307.5,10.66,100,15.15517,0.5,861.9725,0,0.151,3.118,213,12.66,13.05,1.633292,0.108,54.52,61.76,34.4,36.08
"2017-10-22 08:10:00",311150,1.016,207.9,10.65,100,13.76385,1,861.3891,0,-0.873,3.129,224,12.61,13.06,1.534764,0.111,54.58,61.94,34.41,36.12
"2017-10-22 08:20:00",311151,1.017,200.5,10.55,100,11.01658,0.5,861.3575,0,0.554,3.115,287,12.58,13.05,0.9777015,0.088,54.63,62.12,34.42,36.16
"2017-10-22 08:30:00",311152,1.154,186.4,10.51,100,10.655,0.5,861.0942,0,0.045,3.12,209,12.57,13.03,0.9208584,0.087,54.63,62.36,34.42,36.21
"2017-10-22 08:40:00",311153,0.541,187.6,10.52,100,14.83289,1,860.892,0,-1.766,3.138,203,12.57,13.02,1.455184,0.098,54.63,62.78,34.42,36.31
"2017-10-22 08:50:00",311154,0.172,246,10.57,100,22.13535,0.5,860.6645,0,3.54,3.085,258,12.54,13.01,2.141091,0.097,54.75,63.39,34.45,36.44
"2017-10-22 09:00:00",311155,0.15,310.1,10.69,100,29.74438,1,860.5276,0,-30.48,3.419,226,12.56,12.99,3.05816,0.103,54.69,63.93,34.44,36.57
"2017-10-22 09:10:00",311156,0.307,322.7,10.71,100,41.08718,0,860.5781,0,2.496,3.095,224,12.58,12.98,4.073756,0.099,54.75,64.54,34.45,36.7
"2017-10-22 09:20:00",311157,0.405,281.7,10.65,100,40.5959,0.5,860.3655,0,1.884,3.101,254,12.55,12.98,3.967649,0.098,54.75,64.66,34.45,36.73
"2017-10-22 09:30:00",311158,0.24,315.5,10.83,100,40.04566,1,860.3486,0,-30.23,3.415,187,12.5,12.98,4.054809,0.101,54.75,64.73,34.45,36.74
"2017-10-22 09:40:00",311159,0.106,214.6,10.97,100,40.4151,0.5,860.3276,0,-30.28,3.415,252,12.47,12.98,3.910806,0.097,54.75,64.79,34.45,36.76
"2017-10-22 09:50:00",311160,0.057,326.5,10.97,100,22.76813,1,860.4771,0,-33.11,3.443,383,12.45,12.98,2.004667,0.088,54.8,64.79,34.46,36.76
"2017-10-22 10:00:00",311161,0.272,226.2,10.89,100,17.83956,1,860.5045,0,-30.44,3.417,188,12.45,12.98,1.580239,0.088,54.86,64.79,34.48,36.76
"2017-10-22 10:10:00",311162,0.417,182,10.87,100,20.16235,1.5,860.1991,0,-28.7,3.4,212,12.45,13,1.784874,0.089,54.97,64.85,34.51,36.77
"2017-10-22 10:20:00",311163,0.012,212.7,10.86,100,25.36605,1,859.9674,0,-29.72,3.41,197,12.45,13.02,2.258566,0.089,55.03,64.85,34.52,36.77
"2017-10-22 10:30:00",311164,0.262,9.66,10.87,100,29.9409,1,859.6999,0,-29.85,3.412,209,12.46,13.02,2.660258,0.089,55.09,64.85,34.53,36.77
"2017-10-22 10:40:00",311165,0.097,257.1,10.84,100,47.7608,1,859.2955,0,-31.76,3.43,194,12.49,13.02,4.4565,0.093,55.09,64.85,34.53,36.77
"2017-10-22 10:50:00",311166,0.124,250.2,10.89,100,52.1981,1,859.1329,0,-30.77,3.42,205,12.49,13.02,4.763453,0.091,55.09,64.85,34.53,36.77
"2017-10-22 11:00:00",311167,0.181,73.36,10.87,100,39.95133,1,858.5965,0,-29.11,3.404,201,12.44,13.01,3.626591,0.09,55.09,64.85,34.53,36.77
"2017-10-22 11:10:00",311168,0.413,195.1,10.88,100,43.9052,1,858.3873,0,-28.19,3.395,208,12.41,12.98,4.073757,0.093,55.09,64.85,34.53,36.77
"2017-10-22 11:20:00",311169,0.038,293.5,10.93,100,47.34813,0.5,858.5435,0,-29.37,3.406,197,12.41,12.95,4.327655,0.091,55.09,64.85,34.53,36.77
"2017-10-22 11:30:00",311170,0.346,11.07,10.91,100,37.82112,1.5,858.4862,0,-28.47,3.398,247,12.42,12.96,3.395429,0.089,55.09,64.85,34.53,36.77
"2017-10-22 11:40:00",311171,0.173,213.3,10.87,100,38.71722,1,857.8084,0,-28.32,3.396,350,12.42,12.94,3.493957,0.09,55.09,64.85,34.53,36.77
"2017-10-22 11:50:00",311172,0.608,210,10.74,100,69.25945,0.5,857.4799,0,-29.92,3.413,246,12.44,12.93,6.590012,0.095,55.09,64.85,34.53,36.77
"2017-10-22 12:00:00",311173,0.714,225.7,10.72,100,56.21877,1,857.3641,0,-28.8,3.402,210,12.44,12.89,5.19546,0.092,55.15,64.85,34.55,36.77
"2017-10-22 12:10:00",311174,0.424,194.4,10.72,100,57.64154,1,857.4589,0,-29.9,3.412,203,12.44,12.89,5.540308,0.096,55.09,64.85,34.53,36.77
"2017-10-22 12:20:00",311175,0.8,260.6,10.65,100,44.18818,0,856.728,0,1.753,3.103,214,12.42,12.9,4.263234,0.097,55.09,64.79,34.53,36.76
"2017-10-22 12:30:00",311176,0.29,166.1,10.66,100,35.45509,0,856.5637,0,-0.412,3.124,196,12.42,12.93,3.259005,0.092,55.03,64.79,34.52,36.76
"2017-10-22 12:40:00",311177,0.359,224.9,10.58,100,36.42587,1.5,856.1025,0,1.142,3.109,210,12.43,12.93,3.183215,0.088,55.03,64.79,34.52,36.76
"2017-10-22 12:50:00",311178,0.681,223.1,10.56,100,37.31804,1,856.1741,0,-30.94,3.424,190,12.4,12.93,3.448482,0.092,55.03,64.79,34.52,36.76
"2017-10-22 13:00:00",311179,0.496,259.8,10.56,100,29.13126,1,855.599,0,0.938,3.111,317,12.38,12.93,2.592046,0.089,55.09,64.79,34.53,36.76
"2017-10-22 13:10:00",311180,0.863,244.1,10.56,100,35.79309,0.5,855.1483,0,-1.839,3.138,206,12.37,12.94,3.353744,0.093,55.09,64.79,34.53,36.76
"2017-10-22 13:20:00",311181,1.442,230.4,10.81,99,35.50618,1,855.1904,0,0.311,3.115,235,12.39,12.91,3.607643,0.102,55.09,64.79,34.53,36.76
"2017-10-22 13:30:00",311182,0.667,219.8,10.85,96.8,37.32197,0,855.0409,0,0.001,3.119,216,12.41,12.88,3.440903,0.092,55.09,64.79,34.53,36.76
"2017-10-22 13:40:00",311183,0.353,25.71,10.71,99.5,24.13587,0.5,855.6307,0,-32.57,3.439,205,12.41,12.88,2.190355,0.09,55.03,64.79,34.52,36.76
"2017-10-22 13:50:00",311184,0.382,255.3,10.63,100,37.58923,0.5,854.824,0,1.549,3.105,217,12.42,12.88,3.577327,0.094,54.97,64.79,34.51,36.76
"2017-10-22 14:00:00",311185,0.509,260,10.58,100,28.95833,0,854.6049,0,3.383,3.087,312,12.41,12.83,2.527624,0.087,54.92,64.79,34.49,36.76
"2017-10-22 14:10:00",311186,0.573,307.3,10.57,100,32.40911,1,854.6239,0,-33.36,3.447,205,12.41,12.81,2.944473,0.09,54.8,64.79,34.46,36.76
"2017-10-22 14:20:00",311187,0.378,143.1,10.66,100,26.60409,0.5,854.7161,0,-31.19,3.426,186,12.43,12.8,2.508676,0.094,54.92,64.79,34.49,36.76
"2017-10-22 14:30:00",311188,0.444,21.15,10.63,100,25.21277,0.5,854.6732,0,2.16,3.099,241,12.43,12.8,2.493518,0.098,54.97,64.79,34.51,36.76
"2017-10-22 14:40:00",311189,0.407,286.5,10.58,100,16.08272,0.5,854.3914,0,-31.57,3.43,193,12.44,12.8,1.477921,0.092,54.92,64.79,34.49,36.76
"2017-10-22 14:50:00",311190,0.48,344.1,10.55,100,15.13945,1,854.2383,0,0.554,3.115,239,12.43,12.81,1.451394,0.095,54.92,64.79,34.49,36.76
"2017-10-22 15:00:00",311191,0.842,209.2,10.57,100,25.58615,0,853.933,0,1.423,3.106,202,12.4,12.81,2.508676,0.097,54.8,64.79,34.46,36.76
"2017-10-22 15:10:00",311192,0.492,234.1,10.6,100,18.09896,0.5,854.2321,0,0.632,3.114,202,12.41,12.82,1.746978,0.096,54.69,64.79,34.44,36.76
"2017-10-22 15:20:00",311193,0.689,234.2,10.54,100,16.37356,0,853.6403,0,0.506,3.115,220,12.41,12.83,1.644661,0.1,54.69,64.79,34.44,36.76
"2017-10-22 15:30:00",311194,0.403,315.7,10.57,100,13.04854,0.5,853.5392,0,1.573,3.105,214,12.41,12.84,1.326339,0.102,54.63,64.79,34.42,36.76
"2017-10-22 15:40:00",311195,0.519,8.17,10.52,100,8.04529,0,853.1895,0,-31.01,3.425,185,12.42,12.84,0.784435,0.096,54.58,64.79,34.41,36.76
"2017-10-22 15:50:00",311196,0.403,285.7,10.48,100,7.149186,1,852.7409,0,-30.45,3.419,187,12.39,12.84,0.6669592,0.092,54.58,64.73,34.41,36.74
"2017-10-22 16:00:00",311197,0.15,341.7,10.49,100,6.001543,0.5,852.4882,0,-29.86,3.414,201,12.38,12.84,0.553273,0.092,54.58,64.73,34.41,36.74
"2017-10-22 16:10:00",311198,0.373,147,10.49,100,2.794431,1,852.5514,0,-29.05,3.406,219,12.38,12.84,0.272847,0.096,54.63,64.73,34.42,36.74
"2017-10-22 16:20:00",311199,0.299,64.3,10.42,100,1.917978,1.5,852.7451,0,-28.44,3.4,276,12.39,12.84,0.1250549,0.071,54.97,64.79,34.51,36.76
"2017-10-22 16:30:00",311200,0.123,4.771,10.43,100,2.028026,0.5,852.3428,0,-30.58,3.421,380,12.4,12.84,0.3941123,0.196,55.09,64.79,34.53,36.76
"2017-10-22 16:40:00",311201,0.277,325.2,10.44,100,1.135852,0,852.7198,0,-30.3,3.418,192,12.41,12.84,0.1705294,0.12,55.09,64.79,34.53,36.76
"2017-10-22 16:50:00",311202,0.31,22.74,10.44,100,0.499146,1,852.901,0,-30.91,3.424,272,12.4,12.84,0.03410587,0.072,55.09,64.79,34.53,36.76
"2017-10-22 17:00:00",311203,0,0,10.46,100,0.153281,0,852.6103,0,2.766,3.094,233,12.36,12.8,0,0,55.03,64.79,34.52,36.76
"2017-10-22 17:10:00",311204,0.233,290.1,10.41,100,0,0.5,852.128,0,-30.81,3.423,217,12.34,12.78,0,0,55.03,64.79,34.52,36.76
"2017-10-22 17:20:00",311205,0.481,48.63,10.37,100,0,0,851.494,0,0.292,3.119,213,12.32,12.78,0,0,54.92,64.79,34.49,36.76
"2017-10-22 17:30:00",311206,0.579,305.5,10.29,100,0,0.5,850.6431,0,1.82,3.104,255,12.32,12.78,0,0,54.69,64.73,34.44,36.74
"2017-10-22 17:40:00",311207,0.638,335.5,10.29,100,0,0,850.4557,0,0.088,3.121,212,12.33,12.77,0,0,54.63,64.73,34.42,36.74
"2017-10-22 17:50:00",311208,1.519,141.3,10.34,100,0.01572113,0,850.5546,0,1.788,3.101,211,12.33,12.77,0.0833699,0.032,54.58,64.73,34.41,36.74
"2017-10-22 18:00:00",311209,1.917,161.3,11.26,98,0.09432681,0.5,850.1545,0,1.924,3.094,210,12.33,12.77,0.4699031,0.273,54.52,64.73,34.4,36.74
"2017-10-22 18:10:00",311210,1.993,179.9,12.01,85.9,1.52102,0,850.0681,0,0.036,3.112,208,12.32,12.76,0.7730663,0.602,54.46,64.73,34.38,36.74
"2017-10-22 18:20:00",311211,2.311,162.5,12.8,77.05,5.706771,0,850.0134,0,2.408,3.082,228,12.32,12.76,1.887191,0.329,54.46,64.66,34.38,36.73
"2017-10-22 18:30:00",311212,1.296,241.6,12.56,79.42,3.211041,0,849.8743,0,-2.824,3.14,190,12.32,12.76,1.330129,0.495,54.41,64.66,34.37,36.73
"2017-10-22 18:40:00",311213,1.514,180,12.19,81.8,0.3104924,0,850.165,0,0.76,3.108,234,12.31,12.76,1.061072,0.903,54.41,64.54,34.37,36.7
"2017-10-22 18:50:00",311214,1.672,188.1,11.85,82.9,0.8135687,0,849.6679,0,-1.007,3.117,190,12.3,12.76,1.087598,0.679,54.29,63.99,34.34,36.58
"2017-10-22 19:00:00",311215,1.952,165.6,13.29,73.28,2.208819,0,849.1856,0,4.692,3.059,299,12.31,12.76,1.709083,0.792,54.29,63.87,34.34,36.55
"2017-10-22 19:10:00",311216,1.292,264.7,12.25,80.8,0.9904314,0,848.5191,0,0.749,3.11,222,12.31,12.76,0.6896964,0.383,54.24,63.63,34.33,36.5
"2017-10-22 19:20:00",311217,1.612,168,12.21,80.4,1.430623,0,848.0364,0,0.613,3.1,210,12.27,12.76,1.23539,0.693,54.24,63.51,34.33,36.47
"2017-10-22 19:30:00",311218,2.226,155.3,13.58,71.37,2.377821,0,847.7386,0,0.765,3.095,220,12.28,12.76,1.500658,0.792,54.18,63.39,34.32,36.44
"2017-10-22 19:40:00",311219,2.971,145.5,13.31,74.2,0,0,847.3763,0,-1.458,3.12,203,12.31,12.76,0.4395868,0,54.12,63.26,34.3,36.42
"2017-10-22 19:50:00",311220,2.093,174.3,13.1,75.86,0,0,847.3121,0,1.456,3.092,203,12.3,12.76,0.3675855,0,54.07,62.9,34.29,36.34
"2017-10-22 20:00:00",311221,2.62,156.1,13.36,74.9,0,0,847.1589,0,-35.86,3.456,236,12.27,12.76,0.4964299,0,54.07,62.84,34.29,36.32
"2017-10-22 20:10:00",311222,1.668,245.2,12.34,81.5,0,0.5,846.7319,0,1.227,3.102,219,12.27,12.76,0.04168495,0,54.07,62.78,34.29,36.31
"2017-10-22 20:20:00",311223,1.438,288.4,11.23,86.5,0.07467539,0,846.4358,0,6.458,3.058,324,12.28,12.76,0.1061071,0.169,54.01,62.72,34.27,36.3
"2017-10-22 20:30:00",311224,1.349,283.4,10.47,93,0.06681482,0,846.5476,0,3.348,3.089,294,12.28,12.76,0.1174758,0.123,54.01,62.6,34.27,36.27
"2017-10-22 20:40:00",311225,1.343,181.9,11.34,91.2,0.01179085,0.5,846.6405,0,3.838,3.072,242,12.29,12.76,0.6139057,0.289,53.95,62.6,34.26,36.27
"2017-10-22 20:50:00",311226,1.612,222.1,12.29,83.3,0.0471634,0,846.1768,0,0.283,3.116,204,12.28,12.76,0.2690574,0.048,53.95,62.54,34.26,36.25
"2017-10-22 21:00:00",311227,0.711,351.8,9.93,92.6,0,0,845.9269,0,5.439,3.072,262,12.31,12.8,0,0,53.95,62.48,34.26,36.24
"2017-10-22 21:10:00",311228,0.923,330.9,9.45,97.8,0,0.5,845.4402,0,3.321,3.094,242,12.32,12.8,0,0,53.95,62.48,34.26,36.24
"2017-10-22 21:20:00",311229,0.554,328.4,9.4,100,0,0,844.7582,0,1.413,3.113,210,12.32,12.79,0,0,53.95,62.42,34.26,36.23
"2017-10-22 21:30:00",311230,0.879,309,9.42,100,0,0,844.2971,0,4.877,3.078,251,12.32,12.76,0.04547449,0,53.9,62.42,34.25,36.23
"2017-10-22 21:40:00",311231,0.87,189.7,9.71,100,0.003930284,0,843.7178,0,4.427,3.081,249,12.31,12.76,0.3827437,0.032,53.9,62.36,34.25,36.21
"2017-10-22 21:50:00",311232,0.867,199,9.81,100,0,0,843.6041,0,4.655,3.079,241,12.32,12.76,0.03410587,0,53.9,62.36,34.25,36.21
"2017-10-22 22:00:00",311233,0.84,206.3,9.83,100,0.03144227,0,843.2966,0,-0.348,3.126,203,12.33,12.76,0.2273725,0.289,53.84,62.3,34.23,36.2
"2017-10-22 22:10:00",311234,1.5,180.4,10.2,100,0.003930284,1,842.7048,0,0.671,3.116,315,12.34,12.76,0.3372692,0.064,53.84,62.3,34.23,36.2
"2017-10-22 22:20:00",311235,1.558,260.7,10.44,99.4,0,0.5,842.1066,0,0.929,3.108,206,12.33,12.76,0.2880051,0,53.84,62.24,34.23,36.19
"2017-10-22 22:30:00",311236,1.132,235.3,11.32,91,0.007860567,1,841.361,0,0.419,3.113,257,12.31,12.76,0.3259005,0.016,53.95,62.24,34.26,36.19
"2017-10-22 22:40:00",311237,0.871,317.6,10.13,93.7,0.01572113,1,841.1061,0,0.71,3.118,252,12.33,12.76,0.03031633,0.08,54.12,62.3,34.3,36.2
"2017-10-22 22:50:00",311238,0.999,298.5,9.72,99.5,0.003930284,1,840.9144,0,1.597,3.11,257,12.27,12.76,0.0189477,0,54.35,62.36,34.36,36.21
"2017-10-22 23:00:00",311239,0.777,330.7,9.44,100,0,1,841.3947,0,-0.699,3.134,210,12.23,12.75,0,0,54.69,62.48,34.44,36.24
"2017-10-22 23:10:00",311240,0.721,290.9,9.31,100,0,0.5,841.441,0,2.759,3.1,229,12.19,12.76,0,0,54.86,62.78,34.48,36.31
"2017-10-22 23:20:00",311241,0.713,317.4,9.29,100,0,1,840.8892,0,1.767,3.11,240,12.2,12.77,0,0,54.92,63.63,34.49,36.5
"2017-10-22 23:30:00",311242,0.569,285.9,9.28,100,0,1.5,840.4658,0,0.473,3.122,198,12.22,12.73,0.007579082,0,54.97,64.79,34.51,36.76
"2017-10-22 23:40:00",311243,0.567,264.4,9.35,100,0,1,840.0994,0,0.73,3.119,200,12.24,12.72,0.03410587,0,55.03,64.91,34.52,36.78
"2017-10-22 23:50:00",311244,0.614,301.7,9.5,100,0,1,840.0973,0,1.166,3.114,204,12.21,12.71,0.1856875,0,55.15,64.91,34.55,36.78
